Weather History for Luxor, Egypt

Change the Weather History Date:

Friday, July 19, 2013

  Actual Average Record
Temperature  
Mean Temperature 91 °F -  
Max Temperature 101 °F 103 °F 113 °F (2012)
Min Temperature 81 °F 76 °F 73 °F (2003)
Cooling Degree Days 26    
Growing Degree Days 41 (Base 50)    
Moisture  
Dew Point 60 °F    
Average Humidity 34    
Maximum Humidity 48    
Minimum Humidity 15    
Precipitation  
Precipitation 0.00 in 0.00 in - ()
Sea Level Pressure  
Sea Level Pressure 29.71 in    
Wind  
Wind Speed 4 mph ()    
Max Wind Speed 14 mph    
Max Gust Speed -    
Visibility 6.0 miles    
Events      
Averages and records for this station are not official NWS values.
T = Trace of Precipitation, MM = Missing Value Source: Averaged Metar Reports

Daily Weather History Graph

Daily Weather History Graph

Search for Another Location

Airport:

Trip Planner

Search our weather history database for the weather conditions in past years. The results will help you decide how hot, cold, wet, or windy it might be!

Date:

Astronomy

Jul. 19, 2013 Rise Set
Actual Time 5:09 AM EET 6:41 PM EET
Civil Twilight 4:43 AM EET 7:06 PM EET
Nautical Twilight 4:13 AM EET 7:36 PM EET
Astronomical Twilight 3:42 AM EET 8:08 PM EET
Moon 3:22 PM EET (7/19) 1:29 AM EET (7/19)
Length of Visible Light 14h 22m
Length of Day
13h 32m
Waxing Gibbous, 84% of the Moon is Illuminated
Jul 19
Waxing Gibbous
Jul 22
Full
Jul 29
Last Quarter
Aug 6
New
Aug 14
First Quarter

Hourly Weather History & Observations

Time (EET) Temp. Heat Index Dew Point Humidity Pressure Visibility Wind Dir Wind Speed Gust Speed Precip Events Conditions
12:00 AM 86.0 °F 84.5 °F 55.4 °F 35% 29.74 in - Calm Calm - N/A   Clear
1:00 AM 86.0 °F 84.9 °F 57.2 °F 37% 29.71 in - Calm Calm - N/A   Clear
2:00 AM 84 °F - 58 °F 30% 29.72 in 6 mi NW 3.5 mph - -  
2:00 AM 84.2 °F 83.5 °F 57.2 °F 40% 29.71 in - NW 3.5 mph - N/A   Clear
3:00 AM 84.2 °F 83.8 °F 59.0 °F 42% 29.71 in - NW 3.5 mph - N/A   Clear
4:00 AM 84.2 °F 83.8 °F 59.0 °F 42% 29.71 in - NW 3.5 mph - N/A   Clear
5:00 AM 82.4 °F 82.9 °F 60.8 °F 48% 29.71 in - NNW 2.3 mph - N/A   Clear
6:00 AM 82.4 °F 82.9 °F 60.8 °F 48% 29.74 in - Calm Calm - N/A   Clear
7:00 AM 86.0 °F 86.6 °F 62.6 °F 45% 29.74 in - Calm Calm - N/A   Clear
8:00 AM 89 °F - 63 °F 32% 29.73 in 6 mi Calm Calm - -  
8:00 AM 89.6 °F 90.1 °F 62.6 °F 40% 29.74 in - Calm Calm - N/A   Clear
9:00 AM 91.4 °F 92.1 °F 62.6 °F 38% 29.77 in - NW 8.1 mph - N/A   Clear
10:00 AM 93.2 °F 93.3 °F 60.8 °F 34% 29.77 in - NNW 8.1 mph - N/A   Clear
11:00 AM 96.8 °F 96.2 °F 59.0 °F 28% 29.74 in - NNW 11.5 mph - N/A   Clear
12:00 PM 98.6 °F 98.5 °F 59.0 °F 27% 29.74 in - NW 13.8 mph - N/A   Clear
1:00 PM 100.4 °F 99.7 °F 57.2 °F 24% 29.71 in - NW 11.5 mph - N/A   Clear
2:00 PM 101 °F - 58 °F 15% 29.68 in 6 mi NW 11.5 mph - -  
2:00 PM 100.4 °F 99.7 °F 57.2 °F 24% 29.68 in - NW 11.5 mph - N/A   Clear
3:00 PM 100.4 °F 101.3 °F 60.8 °F 27% 29.68 in - WNW 11.5 mph - N/A   Clear
4:00 PM 100.4 °F 100.2 °F 59.0 °F 25% 29.65 in - NW 11.5 mph - N/A   Clear
5:00 PM 98.6 °F 99.4 °F 60.8 °F 29% 29.65 in - WNW 11.5 mph - N/A   Clear
6:00 PM 95.0 °F 95.2 °F 60.8 °F 32% 29.62 in - WNW 11.5 mph - N/A   Clear
7:00 PM 91.4 °F 91.4 °F 60.8 °F 36% 29.68 in - WNW 9.2 mph - N/A   Clear
8:00 PM 89 °F - 59 °F 26% 29.70 in 6 mi WNW 6.9 mph - -  
8:00 PM 89.6 °F 88.9 °F 59.0 °F 36% 29.71 in - SW 6.9 mph - N/A   Clear
9:00 PM 87.8 °F 87.1 °F 59.0 °F 38% 29.71 in - WNW 6.9 mph - N/A   Clear
10:00 PM 87.8 °F 87.1 °F 59.0 °F 38% 29.71 in - WNW 3.5 mph - N/A   Clear
11:00 PM 86.0 °F 85.4 °F 59.0 °F 40% 29.71 in - West 3.5 mph - N/A   Clear